Tracking 29892 objects as of 21-Nov-2024
HD Live streaming from Space Station
objects crossing your sky now

CZ-6A DEB

Track CZ-6A DEB now!
10-day predictions


NORAD ID: 54958
Int'l Code: 2022-151SX
Perigee: 806.1 km
Apogee: 883.6 km
Inclination: 98.8 °
Period: 101.7 minutes
Semi major axis: 7215 km
RCS: Unknown
Launch date: November 11, 2022
Source: People's Republic of China (PRC)
Launch site: Taiyaun Space Center, China (TSC)

Note: This is SATELLITE DEBRIS
Your satellite tracking list
Your tracking list is empty




NASA's NSSDC Master Catalog

Two Line Element Set (TLE):
1 54958U 22151SX  24324.99043444  .00007279  00000-0  36333-2 0  9999
2 54958  98.8194 325.2659 0053695 152.5753 207.8273 14.16359686103888
Source of the keplerian elements: AFSPC